| time (UTC) | temp C | wind direction | speed KPH | gust KPH | rain 1hr cm | rain 24hr cm | rain mn cm | humidity % | barometer mb |
| 20260508023058 | 5 | 301 | 0.0 | 0.0 | 0.00 | 0.00 | 0.00 | 76 | 1013.5 |
| 20260508021558 | 6 | 301 | 0.0 | 0.0 | 0.00 | 0.00 | 0.00 | 75 | 1013.4 |
| 20260508020106 | 6 | 301 | 0.0 | 0.0 | 0.00 | 0.00 | 0.00 | 74 | 1013.3 |
| 20260508014615 | 7 | 301 | 0.0 | 0.0 | 0.00 | 0.00 | 0.00 | 72 | 1013.1 |
| 20260508013100 | 8 | 302 | 0.0 | 0.0 | 0.00 | 0.00 | 0.00 | 70 | 1013.0 |
| 20260508011604 | 9 | 301 | 0.0 | 0.0 | 0.00 | 0.00 | 0.00 | 64 | 1012.8 |
| 20260508010059 | 10 | 302 | 0.0 | 0.0 | 0.00 | 0.00 | 0.00 | 64 | 1012.6 |
| 20260508004556 | 11 | 301 | 0.0 | 0.0 | 0.00 | 0.00 | 0.00 | 57 | 1012.4 |
| 20260508003055 | 11 | 306 | 0.0 | 6.4 | 0.00 | 0.00 | 0.00 | 54 | 1012.2 |
| 20260508001559 | 12 | 325 | 0.0 | 14.5 | 0.00 | 0.00 | 0.00 | 52 | 1012.0 |
| 20260508000055 | 12 | 267 | 1.6 | 14.5 | 0.00 | 0.00 | 0.00 | 52 | 1011.9 |
| 20260507234553 | 12 | 283 | 0.0 | 11.3 | 0.00 | 0.00 | 0.00 | 50 | 1011.5 |
| 20260507233052 | 13 | 349 | 4.8 | 20.9 | 0.00 | 0.00 | 0.00 | 48 | 1011.4 |
| 20260507231552 | 13 | 285 | 1.6 | 22.5 | 0.00 | 0.00 | 0.00 | 45 | 1011.3 |
| 20260507230053 | 13 | 297 | 9.7 | 25.7 | 0.00 | 0.00 | 0.00 | 43 | 1011.1 |
| 20260507224551 | 13 | 265 | 8.0 | 22.5 | 0.00 | 0.00 | 0.00 | 41 | 1011.0 |
| 20260507223051 | 15 | 275 | 6.4 | 19.3 | 0.00 | 0.00 | 0.00 | 40 | 1010.8 |
| 20260507221550 | 15 | 303 | 3.2 | 22.5 | 0.00 | 0.00 | 0.00 | 40 | 1010.7 |
| 20260507220050 | 15 | 271 | 0.0 | 29.0 | 0.00 | 0.00 | 0.00 | 39 | 1010.5 |
| 20260507214550 | 16 | 292 | 6.4 | 19.3 | 0.00 | 0.00 | 0.00 | 39 | 1010.3 |
| 20260507213049 | 15 | 277 | 3.2 | 16.1 | 0.00 | 0.00 | 0.00 | 41 | 1010.0 |
| 20260507211553 | 15 | 303 | 0.0 | 24.1 | 0.00 | 0.00 | 0.00 | 40 | 1010.3 |
| 20260507210048 | 15 | 277 | 4.8 | 19.3 | 0.00 | 0.00 | 0.00 | 41 | 1010.0 |
| 20260507204547 | 16 | 340 | 1.6 | 14.5 | 0.00 | 0.00 | 0.00 | 41 | 1010.1 |
| 20260507203048 | 15 | 315 | 1.6 | 22.5 | 0.00 | 0.00 | 0.00 | 40 | 1010.2 |
| 20260507201546 | 15 | 291 | 4.8 | 20.9 | 0.00 | 0.00 | 0.00 | 38 | 1010.1 |
| 20260507200045 | 15 | 283 | 4.8 | 20.9 | 0.00 | 0.00 | 0.00 | 40 | 1010.3 |
| 20260507194546 | 15 | 349 | 3.2 | 20.9 | 0.00 | 0.00 | 0.00 | 41 | 1010.5 |
| 20260507193042 | 15 | 291 | 4.8 | 19.3 | 0.00 | 0.00 | 0.00 | 39 | 1010.6 |
| 20260507191542 | 15 | 279 | 3.2 | 17.7 | 0.00 | 0.00 | 0.00 | 41 | 1010.5 |
| 20260507190041 | 16 | 284 | 0.0 | 14.5 | 0.00 | 0.00 | 0.00 | 41 | 1010.4 |
| 20260507184540 | 16 | 278 | 3.2 | 17.7 | 0.00 | 0.00 | 0.00 | 40 | 1010.6 |
| 20260507183045 | 16 | 208 | 3.2 | 17.7 | 0.00 | 0.00 | 0.00 | 40 | 1010.7 |
| 20260507181539 | 15 | 266 | 0.0 | 19.3 | 0.00 | 0.00 | 0.00 | 45 | 1010.9 |
| 20260507180036 | 15 | 336 | 0.0 | 19.3 | 0.00 | 0.00 | 0.00 | 41 | 1010.9 |
| 20260507174531 | 15 | 248 | 1.6 | 11.3 | 0.00 | 0.00 | 0.00 | 44 | 1011.0 |
| 20260507173029 | 15 | 285 | 4.8 | 17.7 | 0.00 | 0.00 | 0.00 | 44 | 1011.3 |
| 20260507171527 | 15 | 204 | 1.6 | 14.5 | 0.00 | 0.00 | 0.00 | 47 | 1011.2 |
| 20260507170026 | 14 | 279 | 6.4 | 17.7 | 0.00 | 0.00 | 0.00 | 44 | 1011.5 |
| 20260507164524 | 15 | 258 | 1.6 | 12.9 | 0.00 | 0.00 | 0.00 | 46 | 1011.5 |
| 20260507163020 | 14 | 279 | 1.6 | 12.9 | 0.00 | 0.00 | 0.00 | 49 | 1011.6 |
| 20260507161521 | 14 | 236 | 0.0 | 12.9 | 0.00 | 0.00 | 0.00 | 49 | 1011.6 |
| 20260507160033 | 12 | 274 | 0.0 | 12.9 | 0.00 | 0.00 | 0.00 | 51 | 1011.8 |
| 20260507154514 | 12 | 277 | 3.2 | 14.5 | 0.00 | 0.00 | 0.00 | 51 | 1012.1 |
| 20260507153010 | 13 | 234 | 0.0 | 8.0 | 0.00 | 0.00 | 0.00 | 50 | 1012.1 |
| 20260507151508 | 13 | 246 | 0.0 | 12.9 | 0.00 | 0.00 | 0.00 | 52 | 1012.3 |
| 20260507150006 | 13 | 238 | 0.0 | 14.5 | 0.00 | 0.00 | 0.00 | 53 | 1012.4 |
| 20260507144503 | 13 | 181 | 3.2 | 14.5 | 0.00 | 0.00 | 0.00 | 53 | 1012.6 |
| 20260507143005 | 13 | 252 | 1.6 | 14.5 | 0.00 | 0.00 | 0.00 | 52 | 1012.6 |
| 20260507141601 | 13 | 284 | 3.2 | 11.3 | 0.00 | 0.00 | 0.00 | 56 | 1012.9 |
| 20260507140106 | 12 | 213 | 1.6 | 16.1 | 0.00 | 0.00 | 0.00 | 58 | 1013.0 |
| 20260507134552 | 12 | 225 | 0.0 | 4.8 | 0.00 | 0.05 | 0.00 | 61 | 1013.3 |
| 20260507133050 | 12 | 348 | 0.0 | 0.0 | 0.00 | 0.05 | 0.00 | 65 | 1013.4 |
| 20260507131546 | 11 | 350 | 0.0 | 0.0 | 0.00 | 0.05 | 0.00 | 68 | 1013.4 |
| 20260507130050 | 9 | 355 | 0.0 | 0.0 | 0.00 | 0.05 | 0.00 | 73 | 1013.5 |
| 20260507124548 | 8 | 355 | 0.0 | 0.0 | 0.00 | 0.13 | 0.00 | 79 | 1013.5 |
| 20260507123031 | 6 | 355 | 0.0 | 0.0 | 0.00 | 0.13 | 0.00 | 81 | 1013.6 |
| 20260507121527 | 5 | 355 | 0.0 | 0.0 | 0.00 | 0.13 | 0.00 | 83 | 1013.6 |
| 20260507120025 | 5 | 355 | 0.0 | 0.0 | 0.00 | 0.13 | 0.00 | 87 | 1013.6 |
| 20260507114523 | 3 | 355 | 0.0 | 0.0 | 0.00 | 0.15 | 0.00 | 89 | 1013.8 |
| 20260507113019 | 2 | 355 | 0.0 | 0.0 | 0.00 | 0.15 | 0.00 | 89 | 1013.7 |
| 20260507111517 | 1 | 355 | 0.0 | 0.0 | 0.00 | 0.15 | 0.00 | 88 | 1013.5 |
| 20260507110025 | 1 | 290 | 0.0 | 0.0 | 0.00 | 0.15 | 0.00 | 87 | 1013.5 |
| 20260507104509 | 0 | 290 | 0.0 | 0.0 | 0.00 | 0.36 | 0.00 | 86 | 1013.4 |
| 20260507103006 | 0 | 290 | 0.0 | 0.0 | 0.00 | 0.36 | 0.00 | 86 | 1013.3 |
| 20260507101507 | 0 | 290 | 0.0 | 0.0 | 0.00 | 0.36 | 0.00 | 85 | 1013.1 |
| 20260507100004 | 0 | 290 | 0.0 | 0.0 | 0.00 | 0.36 | 0.00 | 85 | 1013.1 |
| 20260507094502 | 0 | 290 | 0.0 | 0.0 | 0.00 | 0.53 | 0.00 | 85 | 1013.0 |
| 20260507093002 | 0 | 290 | 0.0 | 0.0 | 0.00 | 0.53 | 0.00 | 84 | 1013.0 |
| 20260507091559 | 1 | 290 | 0.0 | 0.0 | 0.00 | 0.53 | 0.00 | 84 | 1013.2 |
| 20260507090105 | 1 | 290 | 0.0 | 0.0 | 0.00 | 0.53 | 0.00 | 84 | 1013.1 |
| 20260507084556 | 1 | 290 | 0.0 | 0.0 | 0.00 | 0.94 | 0.00 | 84 | 1013.1 |
| 20260507083054 | 1 | 290 | 0.0 | 0.0 | 0.00 | 0.94 | 0.00 | 84 | 1013.1 |
| 20260507081552 | 2 | 290 | 0.0 | 0.0 | 0.00 | 0.94 | 0.00 | 83 | 1013.1 |
| 20260507080051 | 2 | 290 | 0.0 | 0.0 | 0.00 | 0.94 | 0.00 | 83 | 1013.2 |
| 20260507074604 | 2 | 290 | 0.0 | 0.0 | 0.00 | 0.94 | 0.00 | 83 | 1013.2 |
| 20260507073047 | 2 | 290 | 0.0 | 0.0 | 0.00 | 0.94 | 0.00 | 82 | 1013.1 |
| 20260507071548 | 3 | 290 | 0.0 | 0.0 | 0.00 | 0.94 | 0.00 | 82 | 1013.1 |
| 20260507070054 | 3 | 290 | 0.0 | 0.0 | 0.00 | 0.94 | 0.00 | 82 | 1013.2 |
| 20260507064539 | 4 | 290 | 0.0 | 0.0 | 0.00 | 0.99 | 0.00 | 81 | 1013.1 |
| 20260507063051 | 5 | 290 | 0.0 | 0.0 | 0.00 | 0.99 | 0.00 | 81 | 1013.2 |
| 20260507061534 | 5 | 290 | 0.0 | 0.0 | 0.00 | 0.99 | 0.00 | 80 | 1013.3 |
| 20260507060039 | 6 | 290 | 0.0 | 0.0 | 0.00 | 0.99 | 0.00 | 79 | 1013.4 |
| 20260507054526 | 6 | 290 | 0.0 | 0.0 | 0.00 | 1.09 | 0.00 | 78 | 1013.4 |
| 20260507053024 | 6 | 290 | 0.0 | 0.0 | 0.00 | 1.09 | 0.00 | 78 | 1013.4 |
| 20260507051523 | 7 | 290 | 0.0 | 0.0 | 0.00 | 1.09 | 0.00 | 79 | 1013.6 |
| 20260507050019 | 7 | 290 | 0.0 | 0.0 | 0.00 | 1.09 | 0.00 | 77 | 1013.8 |
| 20260507044519 | 7 | 290 | 0.0 | 0.0 | 0.00 | 1.22 | 0.00 | 77 | 1013.9 |
| 20260507043017 | 7 | 290 | 0.0 | 0.0 | 0.00 | 1.22 | 0.00 | 77 | 1013.9 |
| 20260507041515 | 7 | 290 | 0.0 | 0.0 | 0.00 | 1.22 | 0.00 | 77 | 1013.8 |
| 20260507040013 | 7 | 290 | 0.0 | 0.0 | 0.00 | 1.22 | 0.00 | 77 | 1013.9 |
| 20260507034527 | 7 | 290 | 0.0 | 0.0 | 0.00 | 1.22 | 1.22 | 76 | 1013.9 |
| 20260507033010 | 7 | 290 | 0.0 | 0.0 | 0.00 | 1.22 | 1.22 | 79 | 1013.5 |
| 20260507031512 | 7 | 290 | 0.0 | 0.0 | 0.00 | 1.22 | 1.22 | 77 | 1013.4 |
| 20260507030010 | 7 | 290 | 0.0 | 0.0 | 0.00 | 1.22 | 1.22 | 78 | 1013.6 |
| 20260507024507 | 7 | 290 | 0.0 | 0.0 | 0.00 | 1.24 | 1.22 | 78 | 1013.4 |